Time,TemperatureF,DewpointF,PressureIn,WindDirection,WindDirectionDegrees,WindSpeedMPH,WindSpeedGustMPH,Humidity,HourlyPrecipIn,Conditions,Clouds,dailyrainin,SoftwareType,DateUTC
2013-09-05 00:03:00,54.8,52.2,30.13,NNE,19,0.0,0.0,91,0.00,,,0.00,Wunderground v.1.15,2013-09-05 05:03:00,
2013-09-05 00:09:00,54.8,52.2,30.13,NE,46,0.0,0.0,91,0.00,,,0.00,Wunderground v.1.15,2013-09-05 05:09:00,
2013-09-05 00:14:00,54.7,52.1,30.13,NNE,31,0.0,0.0,91,0.00,,,0.00,Wunderground v.1.15,2013-09-05 05:14:00,
2013-09-05 00:20:00,54.4,51.8,30.13,NNE,30,0.0,0.0,91,0.00,,,0.00,Wunderground v.1.15,2013-09-05 05:20:00,
2013-09-05 00:26:00,54.2,51.6,30.13,NE,44,0.0,0.0,91,0.00,,,0.00,Wunderground v.1.15,2013-09-05 05:26:00,
2013-09-05 00:31:00,54.0,51.4,30.14,NE,36,0.0,0.0,91,0.00,,,0.00,Wunderground v.1.15,2013-09-05 05:31:00,
2013-09-05 00:37:00,53.8,51.2,30.14,NE,36,0.0,0.0,91,0.00,,,0.00,Wunderground v.1.15,2013-09-05 05:37:00,
2013-09-05 00:42:00,53.6,51.0,30.14,NE,36,0.0,0.0,91,0.00,,,0.00,Wunderground v.1.15,2013-09-05 05:42:00,
2013-09-05 00:48:00,53.5,51.2,30.14,NE,36,0.0,0.0,92,0.00,,,0.00,Wunderground v.1.15,2013-09-05 05:48:00,
2013-09-05 00:54:00,53.4,51.1,30.14,NE,36,0.0,0.0,92,0.00,,,0.00,Wunderground v.1.15,2013-09-05 05:54:00,
2013-09-05 00:59:00,53.2,50.6,30.14,NE,36,0.0,0.0,91,0.00,,,0.00,Wunderground v.1.15,2013-09-05 05:59:00,
2013-09-05 01:05:00,52.9,50.6,30.14,NE,36,0.0,0.0,92,0.00,,,0.00,Wunderground v.1.15,2013-09-05 06:05:00,
2013-09-05 01:10:00,52.9,50.6,30.14,NE,36,0.0,0.0,92,0.00,,,0.00,Wunderground v.1.15,2013-09-05 06:10:00,
2013-09-05 01:16:00,52.5,49.9,30.14,NE,36,0.0,0.0,91,0.00,,,0.00,Wunderground v.1.15,2013-09-05 06:16:00,
2013-09-05 01:21:00,52.2,49.9,30.14,NE,36,0.0,0.0,92,0.00,,,0.00,Wunderground v.1.15,2013-09-05 06:21:00,
2013-09-05 01:27:00,51.9,49.9,30.14,NE,36,0.0,0.0,93,0.00,,,0.00,Wunderground v.1.15,2013-09-05 06:27:00,
2013-09-05 01:32:00,51.7,49.7,30.14,NE,36,0.0,0.0,93,0.00,,,0.00,Wunderground v.1.15,2013-09-05 06:32:00,
2013-09-05 01:38:00,51.6,49.6,30.14,NE,36,0.0,0.0,93,0.00,,,0.00,Wunderground v.1.15,2013-09-05 06:38:00,
2013-09-05 01:43:00,51.5,49.5,30.14,NNE,30,0.0,0.0,93,0.00,,,0.00,Wunderground v.1.15,2013-09-05 06:43:00,
2013-09-05 01:49:00,51.4,49.4,30.14,NE,38,0.0,0.0,93,0.00,,,0.00,Wunderground v.1.15,2013-09-05 06:49:00,
2013-09-05 01:55:00,51.2,49.2,30.14,NE,38,0.0,0.0,93,0.00,,,0.00,Wunderground v.1.15,2013-09-05 06:55:00,
2013-09-05 02:00:00,51.0,49.0,30.14,NE,38,0.0,0.0,93,0.00,,,0.00,Wunderground v.1.15,2013-09-05 07:00:00,
2013-09-05 02:06:00,50.9,49.2,30.14,NE,38,0.0,0.0,94,0.00,,,0.00,Wunderground v.1.15,2013-09-05 07:06:00,
2013-09-05 02:11:00,50.8,49.1,30.14,NE,38,0.0,0.0,94,0.00,,,0.00,Wunderground v.1.15,2013-09-05 07:11:00,
2013-09-05 02:17:00,50.7,49.0,30.14,NE,38,0.0,0.0,94,0.00,,,0.00,Wunderground v.1.15,2013-09-05 07:17:00,
2013-09-05 02:22:00,50.6,48.9,30.15,NE,38,0.0,0.0,94,0.00,,,0.00,Wunderground v.1.15,2013-09-05 07:22:00,
2013-09-05 02:28:00,50.7,49.0,30.15,NE,38,0.0,0.0,94,0.00,,,0.00,Wunderground v.1.15,2013-09-05 07:28:00,
2013-09-05 02:34:00,50.5,48.8,30.15,NE,38,0.0,0.0,94,0.00,,,0.00,Wunderground v.1.15,2013-09-05 07:34:00,
2013-09-05 02:40:00,50.3,48.6,30.15,NE,38,0.0,0.0,94,0.00,,,0.00,Wunderground v.1.15,2013-09-05 07:40:00,
2013-09-05 02:46:00,50.0,48.1,30.15,NE,38,0.0,0.0,93,0.00,,,0.00,Wunderground v.1.15,2013-09-05 07:46:00,
2013-09-05 02:51:00,49.6,47.7,30.15,NE,38,0.0,0.0,93,0.00,,,0.00,Wunderground v.1.15,2013-09-05 07:51:00,
2013-09-05 02:57:00,49.4,47.7,30.15,NE,38,0.0,0.0,94,0.00,,,0.00,Wunderground v.1.15,2013-09-05 07:57:00,
2013-09-05 03:02:00,49.1,47.4,30.15,NE,38,0.0,0.0,94,0.00,,,0.00,Wunderground v.1.15,2013-09-05 08:02:00,
2013-09-05 03:08:00,48.9,47.2,30.16,NE,38,0.0,0.0,94,0.00,,,0.00,Wunderground v.1.15,2013-09-05 08:08:00,
2013-09-05 03:14:00,48.7,47.1,30.16,NNE,26,0.0,0.0,94,0.00,,,0.00,Wunderground v.1.15,2013-09-05 08:14:00,
2013-09-05 03:20:00,48.8,47.2,30.16,NNE,27,0.0,0.0,94,0.00,,,0.00,Wunderground v.1.15,2013-09-05 08:20:00,
2013-09-05 03:26:00,48.5,46.9,30.16,NNE,27,0.0,0.0,94,0.00,,,0.00,Wunderground v.1.15,2013-09-05 08:26:00,
2013-09-05 03:31:00,48.5,46.9,30.17,NNE,27,0.0,0.0,94,0.00,,,0.00,Wunderground v.1.15,2013-09-05 08:31:00,
2013-09-05 03:37:00,48.5,46.9,30.17,NNE,27,0.0,0.0,94,0.00,,,0.00,Wunderground v.1.15,2013-09-05 08:37:00,
2013-09-05 03:42:00,48.6,47.2,30.17,NNE,27,0.0,0.0,95,0.00,,,0.00,Wunderground v.1.15,2013-09-05 08:42:00,
2013-09-05 03:48:00,48.6,47.2,30.17,NNE,27,0.0,0.0,95,0.00,,,0.00,Wunderground v.1.15,2013-09-05 08:48:00,
2013-09-05 03:53:00,48.5,46.9,30.17,NNE,27,0.0,0.0,94,0.00,,,0.00,Wunderground v.1.15,2013-09-05 08:53:00,
2013-09-05 03:59:00,48.3,46.7,30.17,NNE,27,0.0,0.0,94,0.00,,,0.00,Wunderground v.1.15,2013-09-05 08:59:00,
2013-09-05 04:04:00,48.0,46.4,30.17,NNE,27,0.0,0.0,94,0.00,,,0.00,Wunderground v.1.15,2013-09-05 09:04:00,
2013-09-05 04:10:00,47.9,46.3,30.17,NE,38,0.0,0.0,94,0.00,,,0.00,Wunderground v.1.15,2013-09-05 09:10:00,
2013-09-05 04:16:00,47.8,46.2,30.18,NE,38,0.0,0.0,94,0.00,,,0.00,Wunderground v.1.15,2013-09-05 09:16:00,
2013-09-05 04:21:00,47.7,46.1,30.18,NE,38,0.0,0.0,94,0.00,,,0.00,Wunderground v.1.15,2013-09-05 09:21:00,
2013-09-05 04:27:00,47.6,46.2,30.18,NE,44,0.0,0.0,95,0.00,,,0.00,Wunderground v.1.15,2013-09-05 09:27:00,
2013-09-05 04:32:00,47.6,46.2,30.18,NE,43,0.0,0.0,95,0.00,,,0.00,Wunderground v.1.15,2013-09-05 09:32:00,
2013-09-05 04:38:00,47.7,46.3,30.18,NE,43,0.0,0.0,95,0.00,,,0.00,Wunderground v.1.15,2013-09-05 09:38:00,
2013-09-05 04:43:00,47.6,46.2,30.18,East,80,0.0,0.0,95,0.00,,,0.00,Wunderground v.1.15,2013-09-05 09:43:00,
2013-09-05 04:49:00,47.7,46.3,30.18,East,82,0.0,0.0,95,0.00,,,0.00,Wunderground v.1.15,2013-09-05 09:49:00,
2013-09-05 04:54:00,47.8,46.4,30.18,East,82,0.0,0.0,95,0.00,,,0.00,Wunderground v.1.15,2013-09-05 09:54:00,
2013-09-05 05:00:00,48.0,46.6,30.19,ESE,114,0.0,0.0,95,0.00,,,0.00,Wunderground v.1.15,2013-09-05 10:00:00,
2013-09-05 05:06:00,48.1,46.7,30.19,ESE,108,0.0,0.0,95,0.00,,,0.00,Wunderground v.1.15,2013-09-05 10:06:00,
2013-09-05 05:12:00,48.0,46.6,30.19,ESE,108,0.0,0.0,95,0.00,,,0.00,Wunderground v.1.15,2013-09-05 10:12:00,
2013-09-05 05:18:00,48.0,46.6,30.20,ESE,107,0.0,0.0,95,0.00,,,0.00,Wunderground v.1.15,2013-09-05 10:18:00,
2013-09-05 05:23:00,47.9,46.3,30.20,East,101,0.0,0.0,94,0.00,,,0.00,Wunderground v.1.15,2013-09-05 10:23:00,
2013-09-05 05:29:00,47.9,46.3,30.20,East,101,0.0,0.0,94,0.00,,,0.00,Wunderground v.1.15,2013-09-05 10:29:00,
2013-09-05 05:34:00,47.8,46.2,30.20,East,81,0.0,0.0,94,0.00,,,0.00,Wunderground v.1.15,2013-09-05 10:34:00,
2013-09-05 05:40:00,47.7,46.1,30.20,East,98,0.0,0.0,94,0.00,,,0.00,Wunderground v.1.15,2013-09-05 10:40:00,
2013-09-05 05:45:00,47.7,46.1,30.20,ESE,105,0.0,0.0,94,0.00,,,0.00,Wunderground v.1.15,2013-09-05 10:45:00,
2013-09-05 05:51:00,47.6,46.0,30.20,ESE,113,0.0,0.0,94,0.00,,,0.00,Wunderground v.1.15,2013-09-05 10:51:00,
2013-09-05 05:56:00,47.7,46.1,30.20,SE,129,0.0,0.0,94,0.00,,,0.00,Wunderground v.1.15,2013-09-05 10:56:00,
2013-09-05 06:02:00,48.1,46.5,30.20,SE,130,0.0,0.0,94,0.00,,,0.00,Wunderground v.1.15,2013-09-05 11:02:00,
2013-09-05 06:08:00,48.1,46.2,30.20,ESE,119,0.0,0.0,93,0.00,,,0.00,Wunderground v.1.15,2013-09-05 11:08:00,
2013-09-05 06:13:00,48.1,45.9,30.21,ESE,117,0.0,0.0,92,0.00,,,0.00,Wunderground v.1.15,2013-09-05 11:13:00,
2013-09-05 06:19:00,48.1,45.6,30.21,ESE,113,0.0,0.0,91,0.00,,,0.00,Wunderground v.1.15,2013-09-05 11:19:00,
2013-09-05 06:24:00,47.8,45.3,30.21,East,85,0.0,0.0,91,0.00,,,0.00,Wunderground v.1.15,2013-09-05 11:24:00,
2013-09-05 06:30:00,47.4,44.9,30.22,ENE,62,0.0,0.0,91,0.00,,,0.00,Wunderground v.1.15,2013-09-05 11:30:00,
2013-09-05 06:36:00,46.6,44.1,30.22,ENE,62,0.0,0.0,91,0.00,,,0.00,Wunderground v.1.15,2013-09-05 11:36:00,
2013-09-05 06:42:00,46.1,43.6,30.22,NE,41,0.0,0.0,91,0.00,,,0.00,Wunderground v.1.15,2013-09-05 11:42:00,
2013-09-05 06:48:00,46.0,44.1,30.22,NE,49,0.0,0.0,93,0.00,,,0.00,Wunderground v.1.15,2013-09-05 11:48:00,
2013-09-05 06:53:00,46.3,44.4,30.22,NE,48,0.0,0.0,93,0.00,,,0.00,Wunderground v.1.15,2013-09-05 11:53:00,
2013-09-05 06:59:00,46.7,44.8,30.23,NE,56,0.0,0.0,93,0.00,,,0.00,Wunderground v.1.15,2013-09-05 11:59:00,
2013-09-05 07:04:00,47.0,45.1,30.23,ENE,57,0.0,0.0,93,0.00,,,0.00,Wunderground v.1.15,2013-09-05 12:04:00,
2013-09-05 07:10:00,47.3,45.4,30.23,ENE,68,0.0,0.0,93,0.00,,,0.00,Wunderground v.1.15,2013-09-05 12:10:00,
2013-09-05 07:15:00,47.5,45.6,30.23,NE,55,0.0,0.0,93,0.00,,,0.00,Wunderground v.1.15,2013-09-05 12:15:00,
2013-09-05 07:21:00,47.6,45.4,30.23,ENE,66,0.0,0.0,92,0.00,,,0.00,Wunderground v.1.15,2013-09-05 12:21:00,
2013-09-05 07:26:00,47.8,45.6,30.23,East,81,0.0,0.0,92,0.00,,,0.00,Wunderground v.1.15,2013-09-05 12:26:00,
2013-09-05 07:32:00,48.0,45.5,30.24,East,88,0.0,0.0,91,0.00,,,0.00,Wunderground v.1.15,2013-09-05 12:32:00,
2013-09-05 07:37:00,48.3,45.8,30.24,ESE,105,0.0,0.0,91,0.00,,,0.00,Wunderground v.1.15,2013-09-05 12:37:00,
2013-09-05 07:43:00,48.5,46.0,30.24,ESE,105,0.0,0.0,91,0.00,,,0.00,Wunderground v.1.15,2013-09-05 12:43:00,
2013-09-05 07:49:00,48.8,46.0,30.24,East,101,0.0,0.0,90,0.00,,,0.00,Wunderground v.1.15,2013-09-05 12:49:00,
2013-09-05 07:54:00,49.1,46.3,30.24,ESE,105,0.0,0.0,90,0.00,,,0.00,Wunderground v.1.15,2013-09-05 12:54:00,
2013-09-05 08:00:00,49.5,46.7,30.24,ESE,117,0.0,0.0,90,0.00,,,0.00,Wunderground v.1.15,2013-09-05 13:00:00,
2013-09-05 08:06:00,50.3,47.5,30.24,ESE,115,0.0,0.0,90,0.00,,,0.00,Wunderground v.1.15,2013-09-05 13:06:00,
2013-09-05 08:12:00,51.3,47.9,30.24,ESE,107,0.0,0.0,88,0.00,,,0.00,Wunderground v.1.15,2013-09-05 13:12:00,
2013-09-05 08:18:00,52.3,48.5,30.24,ESE,102,0.0,0.0,87,0.00,,,0.00,Wunderground v.1.15,2013-09-05 13:18:00,
2013-09-05 08:23:00,53.1,49.0,30.24,East,86,0.0,0.0,86,0.00,,,0.00,Wunderground v.1.15,2013-09-05 13:23:00,
2013-09-05 08:28:00,53.8,49.4,30.24,East,87,0.0,0.0,85,0.00,,,0.00,Wunderground v.1.15,2013-09-05 13:28:00,
2013-09-05 08:34:00,54.7,50.0,30.24,ESE,111,0.0,0.0,84,0.00,,,0.00,Wunderground v.1.15,2013-09-05 13:34:00,
2013-09-05 08:40:00,55.5,50.4,30.24,East,97,0.0,0.0,83,0.00,,,0.00,Wunderground v.1.15,2013-09-05 13:40:00,
2013-09-05 08:45:00,56.0,50.3,30.25,SE,140,0.0,0.0,81,0.00,,,0.00,Wunderground v.1.15,2013-09-05 13:45:00,
2013-09-05 08:51:00,56.4,50.3,30.25,SE,139,0.0,0.0,80,0.00,,,0.00,Wunderground v.1.15,2013-09-05 13:51:00,
2013-09-05 08:56:00,56.5,50.4,30.25,ESE,113,0.0,0.0,80,0.00,,,0.01,Wunderground v.1.15,2013-09-05 13:56:00,
2013-09-05 09:02:00,56.9,51.1,30.25,ESE,122,0.0,0.0,81,0.00,,,0.01,Wunderground v.1.15,2013-09-05 14:02:00,
2013-09-05 09:08:00,57.3,50.8,30.25,ESE,114,0.0,0.0,79,0.00,,,0.01,Wunderground v.1.15,2013-09-05 14:08:00,
2013-09-05 09:14:00,57.5,50.7,30.25,East,92,0.0,0.0,78,0.00,,,0.01,Wunderground v.1.15,2013-09-05 14:14:00,
2013-09-05 09:20:00,57.9,51.1,30.25,SSE,150,0.0,0.0,78,0.00,,,0.01,Wunderground v.1.15,2013-09-05 14:20:00,
2013-09-05 09:25:00,58.3,51.5,30.25,East,96,0.0,0.0,78,0.00,,,0.01,Wunderground v.1.15,2013-09-05 14:25:00,
2013-09-05 09:31:00,59.0,52.1,30.25,ESE,119,0.0,0.0,78,0.00,,,0.01,Wunderground v.1.15,2013-09-05 14:31:00,
2013-09-05 09:36:00,59.4,51.5,30.25,East,98,0.0,0.0,75,0.00,,,0.01,Wunderground v.1.15,2013-09-05 14:36:00,
2013-09-05 09:42:00,59.5,51.6,30.25,ESE,110,0.0,0.0,75,0.00,,,0.01,Wunderground v.1.15,2013-09-05 14:42:00,
2013-09-05 09:47:00,59.5,51.6,30.25,SSE,147,0.0,0.0,75,0.00,,,0.01,Wunderground v.1.15,2013-09-05 14:47:00,
2013-09-05 09:53:00,60.1,51.8,30.25,ESE,112,0.0,0.0,74,0.00,,,0.01,Wunderground v.1.15,2013-09-05 14:53:00,
2013-09-05 09:59:00,60.6,52.3,30.25,East,84,0.0,0.0,74,0.00,,,0.01,Wunderground v.1.15,2013-09-05 14:59:00,
2013-09-05 10:05:00,61.1,52.7,30.25,SE,127,0.0,0.0,74,0.00,,,0.01,Wunderground v.1.15,2013-09-05 15:05:00,
2013-09-05 10:10:00,61.3,52.9,30.24,ESE,121,0.0,0.0,74,0.00,,,0.01,Wunderground v.1.15,2013-09-05 15:10:00,
2013-09-05 10:15:00,61.4,53.0,30.24,South,173,0.0,0.0,74,0.00,,,0.01,Wunderground v.1.15,2013-09-05 15:15:00,
2013-09-05 10:21:00,61.5,53.1,30.24,SE,138,0.0,0.0,74,0.00,,,0.01,Wunderground v.1.15,2013-09-05 15:21:00,
2013-09-05 10:27:00,62.0,52.9,30.24,SE,133,0.0,0.0,72,0.00,,,0.01,Wunderground v.1.15,2013-09-05 15:27:00,
2013-09-05 10:33:00,62.2,53.4,30.24,SSE,150,0.0,0.0,73,0.00,,,0.01,Wunderground v.1.15,2013-09-05 15:33:00,
2013-09-05 10:38:00,62.5,53.7,30.24,SSE,150,0.0,0.0,73,0.00,,,0.01,Wunderground v.1.15,2013-09-05 15:38:00,
2013-09-05 10:44:00,62.6,53.1,30.24,SE,126,0.0,0.0,71,0.00,,,0.01,Wunderground v.1.15,2013-09-05 15:44:00,
2013-09-05 10:50:00,63.0,54.2,30.24,SE,145,0.0,0.0,73,0.00,,,0.01,Wunderground v.1.15,2013-09-05 15:50:00,
2013-09-05 10:55:00,63.4,54.6,30.24,ESE,113,0.0,0.0,73,0.00,,,0.01,Wunderground v.1.15,2013-09-05 15:55:00,
2013-09-05 11:00:00,63.8,55.0,30.24,ESE,113,0.0,0.0,73,0.00,,,0.01,Wunderground v.1.15,2013-09-05 16:00:00,
2013-09-05 11:06:00,64.2,55.0,30.24,SE,138,0.0,0.0,72,0.00,,,0.01,Wunderground v.1.15,2013-09-05 16:06:00,
2013-09-05 11:11:00,64.3,54.3,30.24,South,188,0.0,0.0,70,0.00,,,0.01,Wunderground v.1.15,2013-09-05 16:11:00,
2013-09-05 11:17:00,64.4,54.8,30.24,South,178,0.0,0.0,71,0.00,,,0.01,Wunderground v.1.15,2013-09-05 16:17:00,
2013-09-05 11:22:00,64.5,55.3,30.23,East,91,0.0,0.0,72,0.00,,,0.01,Wunderground v.1.15,2013-09-05 16:22:00,
2013-09-05 11:28:00,64.9,56.0,30.23,SSE,163,0.0,0.0,73,0.00,,,0.01,Wunderground v.1.15,2013-09-05 16:28:00,
2013-09-05 11:33:00,65.1,55.1,30.23,East,92,0.0,0.0,70,0.00,,,0.01,Wunderground v.1.15,2013-09-05 16:33:00,
2013-09-05 11:39:00,65.1,54.7,30.24,SSE,153,0.0,0.0,69,0.00,,,0.01,Wunderground v.1.15,2013-09-05 16:39:00,
2013-09-05 11:45:00,64.9,54.5,30.24,SSE,166,0.0,0.0,69,0.00,,,0.01,Wunderground v.1.15,2013-09-05 16:45:00,
2013-09-05 11:50:00,65.0,54.6,30.24,SE,128,0.0,0.0,69,0.00,,,0.01,Wunderground v.1.15,2013-09-05 16:50:00,
2013-09-05 11:56:00,65.2,54.4,30.24,ESE,121,0.0,0.0,68,0.00,,,0.01,Wunderground v.1.15,2013-09-05 16:56:00,
2013-09-05 12:01:00,65.5,54.7,30.24,SSW,195,0.0,0.0,68,0.00,,,0.01,Wunderground v.1.15,2013-09-05 17:01:00,
2013-09-05 12:07:00,66.0,54.7,30.24,ESE,106,0.0,0.0,67,0.00,,,0.01,Wunderground v.1.15,2013-09-05 17:07:00,
2013-09-05 12:13:00,66.1,55.2,30.24,South,173,0.0,0.0,68,0.00,,,0.01,Wunderground v.1.15,2013-09-05 17:13:00,
2013-09-05 12:19:00,66.3,54.2,30.23,SE,132,0.0,0.0,65,0.00,,,0.01,Wunderground v.1.15,2013-09-05 17:19:00,
2013-09-05 12:24:00,66.5,56.0,30.23,ESE,114,0.0,0.0,69,0.00,,,0.01,Wunderground v.1.15,2013-09-05 17:24:00,
2013-09-05 12:30:00,66.7,56.2,30.23,ESE,120,0.0,0.0,69,0.00,,,0.01,Wunderground v.1.15,2013-09-05 17:30:00,
2013-09-05 12:35:00,67.1,54.9,30.23,East,90,0.0,0.0,65,0.00,,,0.01,Wunderground v.1.15,2013-09-05 17:35:00,
2013-09-05 12:41:00,67.2,55.5,30.23,ESE,109,0.0,0.0,66,0.00,,,0.01,Wunderground v.1.15,2013-09-05 17:41:00,
2013-09-05 12:47:00,67.6,56.2,30.22,SSW,198,0.0,0.0,67,0.00,,,0.01,Wunderground v.1.15,2013-09-05 17:47:00,
2013-09-05 12:53:00,68.1,55.0,30.22,SE,126,0.0,0.0,63,0.00,,,0.01,Wunderground v.1.15,2013-09-05 17:53:00,
2013-09-05 12:58:00,68.3,54.8,30.22,SE,132,0.0,0.0,62,0.00,,,0.01,Wunderground v.1.15,2013-09-05 17:58:00,
2013-09-05 13:04:00,68.0,54.5,30.22,ESE,115,0.0,0.0,62,0.00,,,0.01,Wunderground v.1.15,2013-09-05 18:04:00,
2013-09-05 13:09:00,67.7,54.6,30.22,ESE,104,0.0,0.0,63,0.00,,,0.01,Wunderground v.1.15,2013-09-05 18:09:00,
2013-09-05 13:15:00,68.0,56.2,30.22,SSE,165,0.0,0.0,66,0.00,,,0.01,Wunderground v.1.15,2013-09-05 18:15:00,
2013-09-05 13:21:00,68.2,54.2,30.22,SE,125,0.0,0.0,61,0.00,,,0.01,Wunderground v.1.15,2013-09-05 18:21:00,
2013-09-05 13:27:00,68.3,54.3,30.22,ESE,109,0.0,0.0,61,0.00,,,0.01,Wunderground v.1.15,2013-09-05 18:27:00,
2013-09-05 13:32:00,68.5,55.4,30.21,SSE,157,0.0,0.0,63,0.00,,,0.01,Wunderground v.1.15,2013-09-05 18:32:00,
2013-09-05 13:38:00,68.4,53.5,30.21,ESE,103,0.0,0.0,59,0.00,,,0.01,Wunderground v.1.15,2013-09-05 18:38:00,
2013-09-05 13:43:00,68.8,54.8,30.21,SE,126,0.0,0.0,61,0.00,,,0.01,Wunderground v.1.15,2013-09-05 18:43:00,
2013-09-05 13:49:00,69.2,55.2,30.21,ESE,112,0.0,0.0,61,0.00,,,0.01,Wunderground v.1.15,2013-09-05 18:49:00,
2013-09-05 13:55:00,69.5,55.9,30.21,SSW,204,0.0,0.0,62,0.00,,,0.01,Wunderground v.1.15,2013-09-05 18:55:00,
2013-09-05 14:00:00,69.4,54.0,30.21,ESE,105,0.0,0.0,58,0.00,,,0.01,Wunderground v.1.15,2013-09-05 19:00:00,
2013-09-05 14:06:00,69.7,55.6,30.21,SSE,163,0.0,0.0,61,0.00,,,0.01,Wunderground v.1.15,2013-09-05 19:06:00,
2013-09-05 14:12:00,69.8,53.4,30.21,SSE,155,0.0,0.0,56,0.00,,,0.01,Wunderground v.1.15,2013-09-05 19:12:00,
2013-09-05 14:17:00,69.9,53.5,30.20,South,183,0.0,0.0,56,0.00,,,0.01,Wunderground v.1.15,2013-09-05 19:17:00,
2013-09-05 14:23:00,70.1,53.2,30.20,ENE,73,0.0,0.0,55,0.00,,,0.01,Wunderground v.1.15,2013-09-05 19:23:00,
2013-09-05 14:29:00,70.2,54.7,30.20,ESE,114,0.0,0.0,58,0.00,,,0.01,Wunderground v.1.15,2013-09-05 19:29:00,
2013-09-05 14:34:00,70.7,53.7,30.20,ESE,118,0.0,0.0,55,0.00,,,0.01,Wunderground v.1.15,2013-09-05 19:34:00,
2013-09-05 14:40:00,71.0,55.0,30.20,SE,146,0.0,0.0,57,0.00,,,0.01,Wunderground v.1.15,2013-09-05 19:40:00,
2013-09-05 14:46:00,71.1,54.6,30.20,ENE,78,0.0,0.0,56,0.00,,,0.01,Wunderground v.1.15,2013-09-05 19:46:00,
2013-09-05 14:52:00,71.4,53.4,30.20,SSE,163,0.0,0.0,53,0.00,,,0.01,Wunderground v.1.15,2013-09-05 19:52:00,
2013-09-05 14:58:00,71.7,55.7,30.20,South,182,0.0,0.0,57,0.00,,,0.01,Wunderground v.1.15,2013-09-05 19:58:00,
2013-09-05 15:04:00,71.9,55.3,30.19,ESE,119,0.0,0.0,56,0.00,,,0.01,Wunderground v.1.15,2013-09-05 20:04:00,
2013-09-05 15:09:00,71.5,52.4,30.19,ESE,102,0.0,0.0,51,0.00,,,0.01,Wunderground v.1.15,2013-09-05 20:09:00,
2013-09-05 15:15:00,71.8,54.8,30.19,East,83,0.0,0.0,55,0.00,,,0.01,Wunderground v.1.15,2013-09-05 20:15:00,
2013-09-05 15:20:00,71.9,53.3,30.19,ESE,121,0.0,0.0,52,0.00,,,0.01,Wunderground v.1.15,2013-09-05 20:20:00,
2013-09-05 15:26:00,71.8,53.7,30.19,South,169,0.0,0.0,53,0.00,,,0.01,Wunderground v.1.15,2013-09-05 20:26:00,
2013-09-05 15:32:00,71.8,52.7,30.19,SSE,154,0.0,0.0,51,0.00,,,0.01,Wunderground v.1.15,2013-09-05 20:32:00,
2013-09-05 15:38:00,71.9,53.8,30.19,SE,126,0.0,0.0,53,0.00,,,0.01,Wunderground v.1.15,2013-09-05 20:38:00,
2013-09-05 15:43:00,72.3,53.2,30.19,SSE,157,0.0,0.0,51,0.00,,,0.01,Wunderground v.1.15,2013-09-05 20:43:00,
2013-09-05 15:49:00,72.7,54.1,30.19,SW,215,0.0,0.0,52,0.00,,,0.01,Wunderground v.1.15,2013-09-05 20:49:00,
2013-09-05 15:54:00,72.9,53.2,30.19,South,170,0.0,0.0,50,0.00,,,0.01,Wunderground v.1.15,2013-09-05 20:54:00,
2013-09-05 16:00:00,73.1,53.9,30.19,South,191,0.0,0.0,51,0.00,,,0.01,Wunderground v.1.15,2013-09-05 21:00:00,
2013-09-05 16:06:00,73.1,52.8,30.18,SW,232,0.0,0.0,49,0.00,,,0.01,Wunderground v.1.15,2013-09-05 21:06:00,
2013-09-05 16:11:00,72.8,54.1,30.18,SSE,157,0.0,0.0,52,0.00,,,0.01,Wunderground v.1.15,2013-09-05 21:11:00,
2013-09-05 16:17:00,72.9,53.7,30.18,SE,130,0.0,0.0,51,0.00,,,0.01,Wunderground v.1.15,2013-09-05 21:17:00,
2013-09-05 16:23:00,73.0,51.6,30.18,ESE,123,0.0,0.0,47,0.00,,,0.01,Wunderground v.1.15,2013-09-05 21:23:00,
2013-09-05 16:28:00,72.6,51.2,30.18,SE,125,0.0,0.0,47,0.00,,,0.01,Wunderground v.1.15,2013-09-05 21:28:00,
2013-09-05 16:34:00,72.4,53.2,30.18,SE,124,0.0,0.0,51,0.00,,,0.01,Wunderground v.1.15,2013-09-05 21:34:00,
2013-09-05 16:40:00,72.3,51.5,30.18,ESE,119,0.0,0.0,48,0.00,,,0.01,Wunderground v.1.15,2013-09-05 21:40:00,
2013-09-05 16:45:00,72.1,53.0,30.18,ESE,120,0.0,0.0,51,0.00,,,0.01,Wunderground v.1.15,2013-09-05 21:45:00,
2013-09-05 16:51:00,72.0,53.4,30.18,SSE,164,0.0,0.0,52,0.00,,,0.01,Wunderground v.1.15,2013-09-05 21:51:00,
2013-09-05 16:56:00,72.0,55.9,30.17,SE,129,0.0,0.0,57,0.00,,,0.01,Wunderground v.1.15,2013-09-05 21:56:00,
2013-09-05 17:02:00,72.2,54.6,30.17,SE,129,0.0,0.0,54,0.00,,,0.01,Wunderground v.1.15,2013-09-05 22:02:00,
2013-09-05 17:08:00,72.4,54.3,30.17,SSE,163,0.0,0.0,53,0.00,,,0.01,Wunderground v.1.15,2013-09-05 22:08:00,
2013-09-05 17:14:00,72.4,53.8,30.17,ESE,117,0.0,0.0,52,0.00,,,0.01,Wunderground v.1.15,2013-09-05 22:14:00,
2013-09-05 17:19:00,72.3,53.7,30.17,SE,136,0.0,0.0,52,0.00,,,0.01,Wunderground v.1.15,2013-09-05 22:19:00,
2013-09-05 17:25:00,72.2,55.1,30.17,SE,127,0.0,0.0,55,0.00,,,0.01,Wunderground v.1.15,2013-09-05 22:25:00,
2013-09-05 17:30:00,72.1,53.5,30.17,SE,130,0.0,0.0,52,0.00,,,0.01,Wunderground v.1.15,2013-09-05 22:30:00,
2013-09-05 17:36:00,72.1,53.5,30.17,SE,134,0.0,0.0,52,0.00,,,0.01,Wunderground v.1.15,2013-09-05 22:36:00,
2013-09-05 17:41:00,72.2,54.6,30.17,SE,134,0.0,0.0,54,0.00,,,0.01,Wunderground v.1.15,2013-09-05 22:41:00,
2013-09-05 17:47:00,72.3,54.7,30.17,ESE,117,0.0,0.0,54,0.00,,,0.01,Wunderground v.1.15,2013-09-05 22:47:00,
2013-09-05 17:53:00,72.2,54.1,30.17,ESE,121,0.0,0.0,53,0.00,,,0.01,Wunderground v.1.15,2013-09-05 22:53:00,
2013-09-05 17:58:00,72.1,54.0,30.16,ESE,119,0.0,0.0,53,0.00,,,0.01,Wunderground v.1.15,2013-09-05 22:58:00,
2013-09-05 18:04:00,71.8,54.8,30.16,SE,126,0.0,0.0,55,0.00,,,0.01,Wunderground v.1.15,2013-09-05 23:04:00,
2013-09-05 18:09:00,71.9,54.3,30.16,ESE,119,0.0,0.0,54,0.00,,,0.01,Wunderground v.1.15,2013-09-05 23:09:00,
2013-09-05 18:15:00,71.9,54.9,30.16,ESE,111,0.0,0.0,55,0.00,,,0.01,Wunderground v.1.15,2013-09-05 23:15:00,
2013-09-05 18:20:00,71.9,53.8,30.16,ESE,111,0.0,0.0,53,0.00,,,0.01,Wunderground v.1.15,2013-09-05 23:20:00,
2013-09-05 18:26:00,71.6,54.6,30.16,ESE,111,0.0,0.0,55,0.00,,,0.01,Wunderground v.1.15,2013-09-05 23:26:00,
2013-09-05 18:31:00,71.5,55.0,30.16,ESE,111,0.0,0.0,56,0.00,,,0.01,Wunderground v.1.15,2013-09-05 23:31:00,
2013-09-05 18:37:00,71.3,55.8,30.16,ESE,111,0.0,0.0,58,0.00,,,0.01,Wunderground v.1.15,2013-09-05 23:37:00,
2013-09-05 18:43:00,70.8,56.2,30.15,ESE,111,0.0,0.0,60,0.00,,,0.01,Wunderground v.1.15,2013-09-05 23:43:00,
2013-09-05 18:48:00,70.5,55.9,30.15,ESE,111,0.0,0.0,60,0.00,,,0.01,Wunderground v.1.15,2013-09-05 23:48:00,
2013-09-05 18:54:00,70.1,56.0,30.15,ESE,111,0.0,0.0,61,0.00,,,0.01,Wunderground v.1.15,2013-09-05 23:54:00,
2013-09-05 18:59:00,69.7,56.1,30.15,ESE,111,0.0,0.0,62,0.00,,,0.01,Wunderground v.1.15,2013-09-05 23:59:00,
2013-09-05 19:05:00,69.4,56.3,30.15,ESE,113,0.0,0.0,63,0.00,,,0.01,Wunderground v.1.15,2013-09-06 00:05:00,
2013-09-05 19:10:00,69.0,55.9,30.15,ESE,113,0.0,0.0,63,0.00,,,0.01,Wunderground v.1.15,2013-09-06 00:10:00,
2013-09-05 19:16:00,68.6,55.5,30.15,ESE,113,0.0,0.0,63,0.00,,,0.01,Wunderground v.1.15,2013-09-06 00:16:00,
2013-09-05 19:21:00,67.9,55.3,30.15,ESE,113,0.0,0.0,64,0.00,,,0.01,Wunderground v.1.15,2013-09-06 00:21:00,
2013-09-05 19:27:00,67.2,55.0,30.16,ESE,113,0.0,0.0,65,0.00,,,0.01,Wunderground v.1.15,2013-09-06 00:27:00,
2013-09-05 19:33:00,66.4,55.1,30.16,ESE,113,0.0,0.0,67,0.00,,,0.01,Wunderground v.1.15,2013-09-06 00:33:00,
2013-09-05 19:39:00,65.7,54.8,30.16,ESE,113,0.0,0.0,68,0.00,,,0.01,Wunderground v.1.15,2013-09-06 00:39:00,
2013-09-05 19:45:00,65.0,56.1,30.16,ESE,113,0.0,0.0,73,0.00,,,0.01,Wunderground v.1.15,2013-09-06 00:45:00,
2013-09-05 19:50:00,64.3,55.8,30.16,ESE,113,0.0,0.0,74,0.00,,,0.01,Wunderground v.1.15,2013-09-06 00:50:00,
2013-09-05 19:56:00,63.6,55.9,30.16,ESE,113,0.0,0.0,76,0.00,,,0.01,Wunderground v.1.15,2013-09-06 00:56:00,
2013-09-05 20:02:00,62.7,55.4,30.16,ESE,113,0.0,0.0,77,0.00,,,0.01,Wunderground v.1.15,2013-09-06 01:02:00,
2013-09-05 20:07:00,62.1,54.8,30.16,ESE,119,0.0,0.0,77,0.00,,,0.01,Wunderground v.1.15,2013-09-06 01:07:00,
2013-09-05 20:13:00,62.2,54.9,30.16,SE,130,0.0,0.0,77,0.00,,,0.01,Wunderground v.1.15,2013-09-06 01:13:00,
2013-09-05 20:18:00,62.4,55.4,30.16,SE,128,0.0,0.0,78,0.00,,,0.01,Wunderground v.1.15,2013-09-06 01:18:00,
2013-09-05 20:24:00,62.1,55.5,30.16,SE,126,0.0,0.0,79,0.00,,,0.01,Wunderground v.1.15,2013-09-06 01:24:00,
2013-09-05 20:30:00,61.7,55.5,30.16,SSE,150,0.0,0.0,80,0.00,,,0.01,Wunderground v.1.15,2013-09-06 01:30:00,
2013-09-05 20:36:00,61.1,54.9,30.16,SE,142,0.0,0.0,80,0.00,,,0.01,Wunderground v.1.15,2013-09-06 01:36:00,
2013-09-05 20:42:00,60.5,54.6,30.16,SE,138,0.0,0.0,81,0.00,,,0.01,Wunderground v.1.15,2013-09-06 01:42:00,
2013-09-05 20:47:00,60.2,54.7,30.16,SE,146,0.0,0.0,82,0.00,,,0.01,Wunderground v.1.15,2013-09-06 01:47:00,
2013-09-05 20:53:00,59.9,54.7,30.16,SE,142,0.0,0.0,83,0.00,,,0.01,Wunderground v.1.15,2013-09-06 01:53:00,
2013-09-05 20:59:00,59.5,54.7,30.16,ESE,119,0.0,0.0,84,0.00,,,0.01,Wunderground v.1.15,2013-09-06 01:59:00,
2013-09-05 21:05:00,59.2,54.4,30.16,SE,139,0.0,0.0,84,0.00,,,0.01,Wunderground v.1.15,2013-09-06 02:05:00,
2013-09-05 21:10:00,59.0,54.5,30.16,ESE,112,0.0,0.0,85,0.00,,,0.01,Wunderground v.1.15,2013-09-06 02:10:00,
2013-09-05 21:16:00,58.8,54.3,30.16,SSE,153,0.0,0.0,85,0.00,,,0.01,Wunderground v.1.15,2013-09-06 02:16:00,
2013-09-05 21:22:00,58.5,54.0,30.16,SE,129,0.0,0.0,85,0.00,,,0.01,Wunderground v.1.15,2013-09-06 02:22:00,
2013-09-05 21:28:00,58.2,54.0,30.16,SE,129,0.0,0.0,86,0.00,,,0.01,Wunderground v.1.15,2013-09-06 02:28:00,
2013-09-05 21:34:00,58.0,53.8,30.16,SE,127,0.0,0.0,86,0.00,,,0.01,Wunderground v.1.15,2013-09-06 02:34:00,
2013-09-05 21:39:00,58.2,54.0,30.16,SE,126,0.0,0.0,86,0.00,,,0.01,Wunderground v.1.15,2013-09-06 02:39:00,
2013-09-05 21:45:00,58.5,54.0,30.16,ESE,122,0.0,0.0,85,0.00,,,0.01,Wunderground v.1.15,2013-09-06 02:45:00,
2013-09-05 21:51:00,58.7,54.2,30.16,SSE,150,0.0,0.0,85,0.00,,,0.01,Wunderground v.1.15,2013-09-06 02:51:00,
2013-09-05 21:56:00,58.5,54.0,30.16,ESE,123,0.0,0.0,85,0.00,,,0.01,Wunderground v.1.15,2013-09-06 02:56:00,
2013-09-05 22:02:00,58.4,53.9,30.17,SE,126,0.0,0.0,85,0.00,,,0.01,Wunderground v.1.15,2013-09-06 03:02:00,
2013-09-05 22:08:00,58.5,54.0,30.17,ESE,122,0.0,0.0,85,0.00,,,0.01,Wunderground v.1.15,2013-09-06 03:08:00,
2013-09-05 22:14:00,58.6,53.8,30.17,ESE,119,0.0,0.0,84,0.00,,,0.01,Wunderground v.1.15,2013-09-06 03:14:00,
2013-09-05 22:19:00,58.5,53.7,30.17,ESE,119,0.0,0.0,84,0.00,,,0.01,Wunderground v.1.15,2013-09-06 03:19:00,
2013-09-05 22:25:00,58.3,53.5,30.17,ESE,119,0.0,0.0,84,0.00,,,0.01,Wunderground v.1.15,2013-09-06 03:25:00,
2013-09-05 22:31:00,58.0,53.2,30.17,ESE,119,0.0,0.0,84,0.00,,,0.01,Wunderground v.1.15,2013-09-06 03:31:00,
2013-09-05 22:37:00,57.6,53.1,30.17,ESE,122,0.0,0.0,85,0.00,,,0.01,Wunderground v.1.15,2013-09-06 03:37:00,
2013-09-05 22:43:00,57.2,53.0,30.17,ESE,123,0.0,0.0,86,0.00,,,0.01,Wunderground v.1.15,2013-09-06 03:43:00,
2013-09-05 22:49:00,57.0,52.9,30.17,SE,130,0.0,0.0,86,0.00,,,0.01,Wunderground v.1.15,2013-09-06 03:49:00,
2013-09-05 22:55:00,56.7,52.9,30.16,SSE,163,0.0,0.0,87,0.00,,,0.01,Wunderground v.1.15,2013-09-06 03:55:00,
2013-09-05 23:00:00,56.3,52.5,30.16,SSE,161,0.0,0.0,87,0.00,,,0.01,Wunderground v.1.15,2013-09-06 04:00:00,
2013-09-05 23:01:00,56.3,52.5,30.16,SSE,161,0.0,0.0,87,0.00,,,0.01,Wunderground v.1.15,2013-09-06 04:01:00,
2013-09-05 23:02:00,56.2,52.4,30.16,SSE,161,0.0,0.0,87,0.00,,,0.01,Wunderground v.1.15,2013-09-06 04:02:00,
2013-09-05 23:03:00,56.2,52.4,30.16,SSE,161,0.0,0.0,87,0.00,,,0.01,Wunderground v.1.15,2013-09-06 04:03:00,
2013-09-05 23:04:00,56.1,52.3,30.16,SSE,161,0.0,0.0,87,0.00,,,0.01,Wunderground v.1.15,2013-09-06 04:04:00,
2013-09-05 23:06:00,56.0,52.2,30.16,SSE,161,0.0,0.0,87,0.00,,,0.01,Wunderground v.1.15,2013-09-06 04:06:00,
2013-09-05 23:07:00,56.0,52.5,30.16,SSE,160,0.0,0.0,88,0.00,,,0.01,Wunderground v.1.15,2013-09-06 04:07:00,
2013-09-05 23:13:00,55.7,52.5,30.16,SSE,160,0.0,0.0,89,0.00,,,0.01,Wunderground v.1.15,2013-09-06 04:13:00,
2013-09-05 23:19:00,55.4,52.2,30.16,SSE,150,0.0,0.0,89,0.00,,,0.01,Wunderground v.1.15,2013-09-06 04:19:00,
2013-09-05 23:24:00,55.1,52.2,30.16,SSE,150,0.0,0.0,90,0.00,,,0.01,Wunderground v.1.15,2013-09-06 04:24:00,
2013-09-05 23:30:00,54.9,52.0,30.16,SSE,150,0.0,0.0,90,0.00,,,0.01,Wunderground v.1.15,2013-09-06 04:30:00,
2013-09-05 23:35:00,54.9,52.0,30.16,SSE,150,0.0,0.0,90,0.00,,,0.01,Wunderground v.1.15,2013-09-06 04:35:00,
2013-09-05 23:41:00,54.8,51.9,30.16,SSE,150,0.0,0.0,90,0.00,,,0.01,Wunderground v.1.15,2013-09-06 04:41:00,
2013-09-05 23:47:00,54.6,52.0,30.16,SSE,150,0.0,0.0,91,0.00,,,0.01,Wunderground v.1.15,2013-09-06 04:47:00,
2013-09-05 23:53:00,54.8,52.2,30.15,SSE,150,0.0,0.0,91,0.00,,,0.01,Wunderground v.1.15,2013-09-06 04:53:00,
2013-09-05 23:58:00,54.9,52.0,30.15,SSE,150,0.0,0.0,90,0.00,,,0.01,Wunderground v.1.15,2013-09-06 04:58:00,